Location: Berbisdorf
(50.7638°N, 12.9442°E)
Time: 02:12:34
(UTC+00:00)

BREEZE-M DEB (TANK) - Pass Details

Date: 06 October 2020
Orbit: 333 x 12040 km, 49.7° (Epoch: 19 October)

Event Time Altitude Azimuth Distance (km) Brightness Sun altitude
Rises 00:03:02 0° 147° (SSE) 15,310 9.2 -42.4°
Reaches altitude 10° 00:22:12 10° 138° (SE) 15,611 9.2 -41.0°
Maximum altitude 01:25:27 29° 100° (E) 12,833 9.2 -34.9°
Drops below altitude 10° 02:01:28 10° 60° (ENE) 9,798 9.3 -30.4°
Sets 02:08:24 0° 51° (NE) 9,515 9.6 -29.5°
